Pierre

United States     44˚21′46″N   100˚19′51″W
temp.,
°C
wind,
m/s
gust,
m/s
humid.,
%
clouds,
%
prec.,
mm/h
press.,
hPa
HPBL,
m
2 december, wed
wed200:00+3˚nnw71175100 0.0 1028768
03:00+2˚nnw81282100 0.1 1030671
06:00+2˚nnw71178100 0.1 1033686
09:00+1˚nnw6995100 0.3 1034453
12:00+2˚nnw6869100 0.4 1036680
15:00+3˚nw575991 0.0 1033873
18:00wnw346250 0.0 103354
21:00−1˚w47640 0.0 1032134
3 december, thu
thu300:00−1˚w47634 0.0 1031137
03:00−2˚w485712 0.0 1028146
06:00−2˚w59526 0.0 1027171
09:00−1˚w611420 0.0 1025293
12:00+6˚wnw68260 0.0 1022469
15:00+8˚wnw69260 0.0 1019543
18:00+5˚w510360 0.0 1019160
21:00+4˚wnw58430 0.0 1019141
4 december, fri
fri400:00+2˚w46480 0.0 101992
03:00+2˚w46490 0.0 102083
06:00+1˚w45440 0.0 101970
09:00+3˚w46360 0.0 1020104
12:00+9˚wnw58260 0.0 1018445
15:00+11˚nw69300 0.0 1016710
18:00+6˚nw464416 0.0 101891
21:00+4˚nw5115947 0.0 1021308
5 december, sat
sat500:00+2˚nw5106733 0.0 1024316
03:00+1˚nw5126732 0.0 1026360
06:00wnw487124 0.0 1026150
09:00+1˚wnw410700 0.0 1028276
12:00+7˚nw57470 0.0 1026445
15:00+10˚nw57360 0.0 1024534
18:00+6˚wnw34460 0.0 102539
21:00+4˚wnw34510 0.0 102528
6 december, sun
sun600:00+3˚w23550 0.0 102422
03:00+2˚sw23531 0.0 102322
06:00+1˚s23541 0.0 102122
09:00+3˚s34420 0.0 102141
12:00+11˚s352512 0.0 1019299
15:00+13˚se342376 0.0 1017380
18:00+6˚se343855 0.0 101928
21:00+4˚se34440 0.0 102123